Home > Weather > Wals-Siezenheim > Past weeks

Flag for Austria Past Weather in Wals-Siezenheim, Salzburg, Austria — Yesterday and Last 2 Weeks

Now
75 °F

Partly sunny.


Feels Like: 78 °F
Forecast: 56 / 66 °F
Wind: 6 mph from North

Location: Salzburg-Flughafen

Current Time: May 29, 2016 at 1:41:25 PM

Latest Report: May 29, 2016 at 12:50 PM


Visibility: N/A

Pressure: 29.68 "Hg

Humidity: 57%

Dew Point: 59 °F

Location of Wals-SiezenheimLocation

Past Weather in Wals-Siezenheim — Graph

°F

Wals-Siezenheim Temperature Yesterday

Maximum temperature yesterday: 77 °F (at 3:20 PM)
Minimum temperature yesterday: 59 °F (at 5:20 AM)
Average temperature yesterday: 66 °F

High & Low Weather Summary for the Past Weeks

 TemperatureHumidityPressure
High86 °F (May 22, 4:50 PM)100% (May 17, 12:20 AM)30.21 "Hg (May 17, 12:20 AM)
Low39 °F (May 16, 5:20 AM)34% (May 22, 12:50 PM)29.68 "Hg (May 29, 12:20 PM)
Average56 °F76%29.97 "Hg
* Reported May 14 12:20 PM — May 29 12:20 PM, Wals-Siezenheim, Weather by CustomWeather, © 2016

Note: Actual official high and low records may vary slightly from our data, if they occured in-between our weather recording intervals... More about our weather records

Advertising

Wals-Siezenheim Weather History for the Previous 24 Hours

Scroll right to see more
 ConditionsComfort  
Time TempWeatherWind HumidityBarometerVisibility
12:20 PM
Sun, May 29
73 °FPartly sunny.6 mph61%29.68 "HgN/A
11:50 AM73 °FScattered clouds.5 mph65%29.71 "HgN/A
11:20 AM73 °FPassing clouds.5 mph61%29.71 "HgN/A
10:50 AM70 °FSunny.2 mph69%29.74 "Hg10 mi
10:20 AM70 °FSunny.2 mph69%29.74 "Hg10 mi
9:50 AM68 °FSunny.2 mph69%29.74 "Hg10 mi
9:20 AM68 °FSunny.3 mph69%29.74 "Hg10 mi
8:50 AM64 °FSunny.3 mph73%29.74 "Hg10 mi
8:20 AM64 °FSunny.6 mph78%29.77 "Hg10 mi
7:50 AM64 °FSunny.6 mph78%29.74 "Hg10 mi
7:20 AM63 °FSunny.6 mph77%29.74 "Hg10 mi
6:50 AM59 °FSunny.6 mph88%29.74 "Hg10 mi
6:20 AM57 °FSunny.2 mph88%29.74 "Hg10 mi
5:50 AM59 °FClear.7 mph82%29.74 "Hg10 mi
5:20 AM59 °FPassing clouds.7 mph82%29.74 "HgN/A
4:50 AM57 °FPassing clouds.10 mph88%29.74 "HgN/A
4:20 AM59 °FPassing clouds.10 mph88%29.74 "HgN/A
3:50 AM57 °FPassing clouds.9 mph88%29.74 "HgN/A
3:20 AM59 °FPassing clouds.9 mph88%29.77 "HgN/A
2:50 AM57 °FPassing clouds.8 mph94%29.77 "HgN/A
2:20 AM59 °FPassing clouds.7 mph88%29.77 "HgN/A
1:50 AM59 °FPassing clouds.10 mph88%29.77 "HgN/A
1:20 AM59 °FPassing clouds.9 mph94%29.80 "HgN/A
12:50 AM59 °FPassing clouds.8 mph94%29.80 "HgN/A
12:20 AM61 °FPassing clouds.8 mph88%29.83 "HgN/A
11:50 PM
Sat, May 28
61 °FPassing clouds.9 mph88%29.83 "HgN/A
11:20 PM61 °FPassing clouds.9 mph88%29.86 "HgN/A
10:50 PM61 °FClear.8 mph94%29.86 "Hg10 mi
10:20 PM61 °FClear.8 mph94%29.86 "Hg10 mi
9:50 PM61 °FScattered clouds.8 mph94%29.86 "HgN/A
9:20 PM61 °FScattered clouds.9 mph94%29.86 "HgN/A
8:50 PM63 °FPartly sunny.9 mph88%29.86 "HgN/A
8:20 PM63 °FBroken clouds.10 mph88%29.89 "HgN/A
7:50 PM63 °FPartly sunny.9 mph88%29.86 "HgN/A
6:50 PM63 °FBroken clouds.5 mph94%29.86 "HgN/A
6:20 PM63 °FThunderstorms. Broken clouds.24 mph83%29.86 "HgN/A
5:50 PM73 °FBroken clouds.8 mph65%29.86 "HgN/A
5:20 PM73 °FBroken clouds.10 mph61%29.83 "HgN/A
4:50 PM75 °FBroken clouds.9 mph57%29.83 "HgN/A
4:20 PM75 °FScattered clouds.9 mph57%29.83 "HgN/A
3:50 PM77 °FPassing clouds.10 mph54%29.86 "HgN/A
3:20 PM77 °FPassing clouds.7 mph57%29.86 "HgN/A
2:50 PM75 °FPassing clouds.5 mph57%29.86 "HgN/A
2:20 PM75 °FPassing clouds.6 mph57%29.89 "HgN/A
1:50 PM73 °FPassing clouds.7 mph57%29.92 "HgN/A
1:20 PM73 °FPassing clouds.9 mph57%29.92 "HgN/A
Weather by CustomWeather, © 2016

See weather overviewHow to use our weather pages